TIME,DELAY(SENSOR),PRES,OXYGEN,RAWTEMP,T(OPTODE),TCPHASE,FLUOR,BETA(BETA700),BETA(BETA412),BETA(BETA440),CDOM,C(CSC),ED(ED412.20),ED(ED444.00),ED(ED489.60),ED(ED554.30),LU(LU412.10),LU(LU443.90),LU(LU489.70),LU(LU554.70),COMP,TILTX,TILTY,CHECK
1368935353,5812,879.2399902343750000,33.4546012878418000,562.9202270507812000,4.3953590393066410,56.5549011230468750,56,101,100,78,82,15646,0,0,0,0,2147122468,2147772306,2147571547,2147568137,109,2,13,17398
1368938949,5810,953.2199707031250000,38.4891815185546900,568.4213256835938000,4.2246088981628420,55.8258705139160160,55,98,98,78,81,15643,0,0,0,0,2147122688,2147775990,2147570166,2147566985,596,2,13,45273
1368942549,5810,965.3099975585938000,35.7953796386718750,568.5844116210938000,4.2195429801940920,56.2407798767089840,53,96,100,79,81,15641,0,0,0,0,2147122230,2147775378,2147566985,2147567104,309,2,13,42366
1368946149,5809,991.2100219726562000,36.7364883422851560,571.1511230468750000,4.1397857666015625,56.1198501586914060,55,114,100,79,80,15634,0,0,0,0,2147123145,2147768091,2147571840,2147565924,3572,2,13,5363
1368949749,5813,996.2600097656250000,36.8263702392578100,571.5629882812500000,4.1269798278808590,56.1148681640625000,54,97,99,77,81,15640,0,0,0,0,2147124288,2147773915,2147570349,2147566427,498,2,13,45002
1368953349,5810,997.3300170898438000,37.0816001892089840,571.6145019531250000,4.1253781318664550,56.0751609802246100,55,98,100,78,81,15641,0,0,0,0,2147124032,2147772635,2147568320,2147566930,222,3,13,59648
1368956949,5810,994.3800048828125000,38.6783905029296900,572.1342163085938000,4.1092209815979000,55.8355789184570300,55,98,100,79,81,15641,0,0,0,0,2147123547,2147773476,2147570514,2147566966,3309,2,13,60924
1368960549,5806,991.0100097656250000,38.2857208251953100,573.3522949218750000,4.0713391304016110,55.9121818542480500,55,98,99,77,82,15642,0,0,0,0,2147121993,2147778395,2147571410,2147567478,112,2,13,39824
1368964149,5811,992.7800292968750000,38.5822982788085940,573.2794189453125000,4.0736079216003420,55.8594093322753900,55,98,100,77,82,15641,0,0,0,0,2147122806,2147775268,2147570587,2147568356,3571,2,13,13112
1368967749,5809,1000.9299926757812000,40.3278312683105500,573.4390258789062000,4.0686440467834470,55.6013793945312500,55,97,99,79,80,15639,0,0,0,0,2147121197,2147770724,2147566518,2147568118,3575,2,13,63467
1368971349,5810,998.9400024414062000,38.3216094970703100,573.5048828125000000,4.0665907859802250,55.9038810729980500,54,99,99,77,81,15637,0,0,0,0,2147121270,2147770742,2147572964,2147568082,199,2,13,18857
1368974949,5807,997.3599853515625000,38.5852203369140600,573.8159790039062000,4.0569128990173340,55.8720817565918000,56,97,101,78,80,15638,0,0,0,0,2147125202,2147770002,2147567926,2147566601,3590,2,13,11363
1368978549,5811,1001.2600097656250000,39.7267494201660160,573.9318847656250000,4.0533099174499510,55.6956291198730500,55,102,99,79,81,15636,0,0,0,0,2147123035,2147775222,2147569014,2147564150,3468,2,13,32238
1368982149,5809,1004.6799926757812000,39.0044708251953100,573.0844116210938000,4.0796699523925780,55.8007011413574200,54,98,100,78,81,15641,0,0,0,0,2147124818,2147775917,2147570825,2147568539,3534,2,13,63797
1368985749,5812,1003.8900146484375000,39.0774993896484400,572.0205078125000000,4.1127548217773440,55.7765083312988300,54,97,100,79,81,15639,0,0,0,0,2147121993,2147779053,2147577216,2147565897,636,2,13,41196
1368989349,5812,1011.5599975585938000,39.7220191955566400,571.7803955078125000,4.1202201843261720,55.6732788085937500,55,97,100,78,81,15639,0,0,0,0,2147119908,2147777243,2147570980,2147565924,3592,2,13,19297
1368992949,5815,1005.0999755859375000,36.4583587646484400,572.3602294921875000,4.1021938323974610,56.1774787902832000,55,98,100,78,81,15639,0,0,0,0,2147123181,2147775917,2147570742,2147566061,68,2,13,23722
1368996549,5808,1004.6900024414062000,38.1565399169921900,573.0994873046875000,4.0792012214660645,55.9276504516601560,55,98,98,78,82,15634,0,0,0,0,2147121929,2147768329,2147572224,2147565385,220,2,13,32126
1369000149,5809,1009.7299804687500000,37.8158111572265600,573.5172119140625000,4.0662078857421875,55.9809494018554700,55,96,101,78,81,15632,0,0,0,0,2147123593,2147775478,2147573357,2147566125,3555,2,13,33679
1369003749,5811,1004.2800292968750000,40.2158393859863300,573.8344116210938000,4.0563411712646480,55.6279983520507800,54,96,99,78,82,15634,0,0,0,0,2147124827,2147772132,2147572873,2147567780,10,3,13,51883
1369007349,5809,1006.1699829101562000,39.5396499633789060,573.9232788085938000,4.0535759925842285,55.7242698669433600,54,98,100,78,82,15632,0,0,0,0,2147123638,2147770176,2147566866,2147563739,136,2,13,1155
1369010949,5811,1005.7500000000000000,38.9242210388183600,573.8706054687500000,4.0552158355712890,55.8195991516113300,55,97,100,77,82,15631,0,0,0,0,2147123218,2147771803,2147571364,2147569097,94,2,13,11103
1369014549,5809,1000.7600097656250000,40.6264114379882800,574.0236816406250000,4.0504531860351560,55.5638885498046900,55,97,99,77,82,15629,0,0,0,0,2147120731,2147769746,2147574875,2147569060,279,2,13,49908
1369018149,5812,1000.2100219726562000,40.3454704284668000,574.4597778320312000,4.0368862152099610,55.6088294982910160,54,97,100,78,82,15628,0,0,0,0,2147124973,2147772836,2147568356,2147564498,3287,3,13,38400
1369021749,5809,1003.7600097656250000,41.0243301391601560,574.1823730468750000,4.0455150604248050,55.5093116760253900,55,99,100,77,81,15626,0,0,0,0,2147123821,2147771721,2147570505,2147565385,910,3,13,35124
1369025349,5809,1001.4000244140625000,38.9981689453125000,574.2075805664062000,4.0447311401367190,55.8127403259277340,55,100,101,78,82,15625,0,0,0,0,2147122514,2147768201,2147576530,2147568091,535,3,13,13437
1369028949,5813,1006.1199951171875000,38.2495918273925800,573.2437133789062000,4.0747179985046390,55.9094390869140600,55,97,99,78,81,15620,0,0,0,0,2147123748,2147771894,2147568996,2147566290,3240,2,13,34752
1369032549,5809,1008.6400146484375000,38.9059295654296900,573.1196899414062000,4.0785732269287110,55.8151817321777340,55,99,100,78,81,15621,0,0,0,0,2147121097,2147767149,2147570998,2147564068,285,2,13,31253
1369036149,5810,1014.7199707031250000,37.4261283874511700,572.8557739257812000,4.0867819786071780,56.0369606018066400,55,98,99,78,81,15620,0,0,0,0,2147123264,2147775945,2147572772,2147565714,3299,2,13,27196
1369039749,5810,1009.5399780273438000,37.2475318908691400,572.3366699218750000,4.1029238700866700,56.0537796020507800,56,97,100,78,81,15619,0,0,0,0,2147125065,2147775853,2147572105,2147568091,390,2,13,38653
1369043349,5809,1000.5399780273438000,37.1124191284179700,574.1121215820312000,4.0477051734924320,56.0917587280273440,54,97,99,78,81,15615,0,0,0,0,2147120768,2147771117,2147570578,2147569810,159,2,13,48067
1369046949,5811,1000.0499877929688000,40.9211502075195300,574.8391723632812000,4.0250802040100100,55.5288696289062500,55,97,100,77,82,15620,0,0,0,0,2147126537,2147768658,2147570541,2147569691,366,2,13,26024
1369050549,5808,1002.9000244140625000,38.9532699584960940,574.4395141601562000,4.0375180244445800,55.8239288330078100,55,96,98,77,80,15616,0,0,0,0,2147122715,2147774930,2147568475,2147567424,3588,2,13,28348
1369054149,5810,1008.7700195312500000,38.8262596130371100,574.3079223632812000,4.0416131019592285,55.8392295837402340,55,96,99,78,81,15619,0,0,0,0,2147122212,2147770477,2147569097,2147567250,238,2,13,29743
1369057749,5808,1007.4799804687500000,39.8563499450683600,573.9456787109375000,4.0528788566589355,55.6770286560058600,55,99,100,78,81,15614,0,0,0,0,2147122322,2147770870,2147572470,2147568438,2479,2,13,9403
1369061349,5810,1008.1300048828125000,40.3805503845214840,574.3067016601562000,4.0416488647460940,55.6058006286621100,54,99,98,77,80,15615,0,0,0,0,2147122724,2147774893,2147567067,2147568018,62,2,13,59223
1369064949,5811,1006.7199707031250000,38.8632698059082000,573.9738769531250000,4.0520038604736330,55.8300704956054700,55,97,100,78,81,15608,0,0,0,0,2147121709,2147770752,2147571136,2147565622,7,2,13,56794
1369068549,5809,1011.3900146484375000,38.8527488708496100,573.8367919921875000,4.0562691688537600,55.8260002136230500,55,99,100,77,81,15613,0,0,0,0,2147122203,2147773586,2147572489,2147568521,110,2,13,51408
1369072149,5810,1015.5399780273438000,38.5549812316894500,573.3267822265625000,4.0721302032470700,55.8664588928222660,54,99,99,79,81,15612,0,0,0,0,2147121636,2147773860,2147571721,2147564918,394,2,13,38080
1369075749,5809,1009.0100097656250000,40.5532989501953100,573.1489257812500000,4.0776629447937010,55.5637016296386700,53,98,99,78,81,15612,0,0,0,0,2147122496,2147774601,2147569764,2147566272,3394,2,13,61596
1369079349,5808,1018.8400268554688000,39.9481887817382800,572.2177124023438000,4.1066250801086430,55.6472015380859400,55,98,99,78,81,15611,0,0,0,0,2147119853,2147769837,2147571574,2147565330,3138,2,13,12362
1369080056,5811,1016.2800292968750000,38.8041610717773440,572.1987304687500000,4.1072158813476560,55.8140716552734400,55,97,100,78,81,15609,0,0,0,0,2147123355,2147770377,2147574171,2147566372,3535,2,13,20203
